WGS F2 (USA 204)

Last updated on Tue Sep 16 2025 00:02:46 GMT+0000 (Coordinated Universal Time)

1 34713U 09017A 25258.59592933 .00000051 00000+0 00000+0 0 9996 2 34713 0.0184 151.2841 0000352 54.5285 61.0154 1.00270401 42866
UTC large
Height (km)
Speed (km/s)
/
Latitude / Longitude
Inclination (degrees)
Orbital Period (minutes)
Azimuth
Elevation
Range (km)
Doppler Factor

Next 0 passes for location: London (51.5072 / 0.1276)

Sorry there are no passes over London.